TimePDT,TemperatureF,Dew PointF,Humidity,Sea Level PressureIn,VisibilityMPH,Wind Direction,Wind SpeedMPH,Gust SpeedMPH,PrecipitationIn,Events,Conditions,WindDirDegrees,DateUTC
12:53 AM,60.1,53.1,78,29.89,10.0,NNW,3.5,-,N/A,,Clear,330,2013-09-18 07:53:00
1:53 AM,60.1,53.1,78,29.89,10.0,Calm,Calm,-,N/A,,Clear,0,2013-09-18 08:53:00
2:53 AM,59.0,51.1,75,29.89,10.0,Calm,Calm,-,N/A,,Clear,0,2013-09-18 09:53:00
3:53 AM,57.0,50.0,77,29.87,10.0,SSW,3.5,-,N/A,,Clear,200,2013-09-18 10:53:00
4:53 AM,55.9,50.0,80,29.87,10.0,Calm,Calm,-,N/A,,Clear,0,2013-09-18 11:53:00
5:53 AM,55.9,50.0,80,29.89,10.0,Calm,Calm,-,N/A,,Clear,0,2013-09-18 12:53:00
6:53 AM,55.9,50.0,80,29.90,10.0,Calm,Calm,-,N/A,,Clear,0,2013-09-18 13:53:00
7:53 AM,57.9,51.1,78,29.92,10.0,Calm,Calm,-,N/A,,Partly Cloudy,0,2013-09-18 14:53:00
8:53 AM,62.1,53.1,72,29.91,10.0,Calm,Calm,-,N/A,,Partly Cloudy,0,2013-09-18 15:53:00
9:53 AM,64.9,52.0,63,29.92,10.0,WSW,4.6,-,N/A,,Partly Cloudy,250,2013-09-18 16:53:00
10:53 AM,70.0,50.0,49,29.91,10.0,Variable,5.8,-,N/A,,Clear,0,2013-09-18 17:53:00
11:53 AM,73.0,48.9,42,29.89,10.0,Variable,4.6,-,N/A,,Clear,0,2013-09-18 18:53:00
12:53 PM,78.1,46.9,33,29.87,10.0,WNW,4.6,-,N/A,,Clear,300,2013-09-18 19:53:00
1:53 PM,81.0,44.1,27,29.86,10.0,WNW,10.4,-,N/A,,Partly Cloudy,300,2013-09-18 20:53:00
2:53 PM,82.0,43.0,25,29.83,10.0,NW,10.4,-,N/A,,Partly Cloudy,310,2013-09-18 21:53:00
3:53 PM,81.0,45.0,28,29.82,10.0,WNW,15.0,-,N/A,,Partly Cloudy,300,2013-09-18 22:53:00
4:53 PM,79.0,45.0,30,29.82,10.0,NW,18.4,-,N/A,,Partly Cloudy,320,2013-09-18 23:53:00
5:53 PM,75.0,48.0,38,29.83,10.0,NNW,16.1,-,N/A,,Clear,330,2013-09-19 00:53:00
6:53 PM,72.0,48.0,43,29.83,10.0,NNW,16.1,-,N/A,,Clear,330,2013-09-19 01:53:00
7:53 PM,66.9,50.0,54,29.85,10.0,NNW,10.4,-,N/A,,Clear,330,2013-09-19 02:53:00
8:53 PM,64.0,50.0,60,29.87,10.0,West,6.9,-,N/A,,Clear,280,2013-09-19 03:53:00
9:53 PM,64.0,51.1,63,29.87,10.0,SW,3.5,-,N/A,,Clear,230,2013-09-19 04:53:00
10:53 PM,63.0,51.1,65,29.86,10.0,Calm,Calm,-,N/A,,Clear,0,2013-09-19 05:53:00
11:53 PM,61.0,50.0,67,29.85,10.0,East,3.5,-,N/A,,Clear,100,2013-09-19 06:53:00